logo
Search for airport 
image banner adimage banner adimage banner ad
image banner ad

ED3144 - Hartenstein

Located in , Germany

ICAO - , IATA -

Data provided by Airmate  

General information

Coordinates: N50°40'33" E12°40'45"
Elevation is 1450 feet MSL.
 
View others Airports in Saxony

Operational data

Special qualification required
Current time UTC:
Current local time:
Weather at : EDAC - Leipzig-Altenburg Airport ( 36 km )
METAR: EDAC 301850Z AUTO 19003KT 9999 // FEW021/// BKN080/// BKN130/// 16/14 Q1004
TAF: TAF EDAC 301700Z 3018/3103 22004KT 9999 FEW012 BKN020 TEMPO 3018/3021 SHRA BKN012 BKN020CB BECMG 3021/3023 BKN009 TEMPO 3022/3103 3000 BR BKN004 PROB30 TEMPO 3023/3103 0700 FG BKN001
View NOTAMs / SUP AIP / TFR affecting this airport [VIEW]
Communications frequencies: [VIEW]

Runways:

Airport contact information

Address: Germany

Satellite view of ED3144